Tracking 19279 objects as of 13-Nov-2018
HD Live streaming from Space Station
objects crossing your sky now

OPS 9327 (IDSCS 14)

Track OPS 9327 (IDSCS 14) now!
OPS 9327 (IDSCS 14) is classified as:


NORAD ID: 2654
Int'l Code: 1967-003G
Perigee: 33,660.7 km
Apogee: 34,097.6 km
Inclination: 3.0 °
Period: 1,339.4 minutes
Semi major axis: 40250 km
RCS: 0.5011 m2 (medium)
Launch date: January 18, 1967
Source: United States (US)
Launch site: AIR FORCE EASTERN TEST RANGE (AFETR)
aabbcc
Your satellite tracking list
Your tracking list is empty




NASA's NSSDC Master Catalog

Two Line Element Set (TLE):
1  2654U 67003G   18316.85687284 -.00000075 +00000-0 +00000-0 0  9993
2  2654 003.0082 058.7821 0054276 343.0049 276.4577 01.07510837109651
Source of the keplerian elements: AFSPC